Wind_Speed
4 6 6 4 4 3 4 4 12 8 2 5 11 7 9 12 16 16 12 11 10 10 11 14 14 12 11 11 11 15 15 14 16 14 12 10 11 13 13 17 19 16 13 9
5 10 5 6 6 6 3 6 5 4 3 2 7 12 9 13 19 17 14 11 11 12 13 17 16 14 14 13 12 14 15 15 16 15 14 13 12 11 12 15 21 18 14 14
8 3 12 8 8 8 5 6 6 3 7 4 1 13 13 14 15 13 13 15 16 15 16 15 18 17 15 15 15 14 14 14 15 14 12 12 11 14 12 14 16 19 15 16
5 5 9 10 7 7 7 6 7 8 8 3 6 7 11 19 18 16 17 17 16 14 14 14 19 19 18 16 14 14 15 13 14 15 13 13 12 14 20 16 12 13 15 15
5 8 10 8 4 11 1 6 7 6 5 2 8 5 5 8 15 19 20 19 18 18 17 17 19 19 19 17 16 14 17 15 14 15 13 11 10 11 8 9 7 6 8 11
3 2 3 3 8 7 13 8 6 3 1 4 4 6 6 8 14 16 18 20 19 18 18 15 18 17 19 18 17 17 18 18 17 16 13 12 10 5 5 3 4 7 12 15
3 3 3 9 10 7 3 6 1 2 2 3 2 5 12 7 5 12 18 19 19 17 17 16 17 20 20 21 21 21 20 20 18 16 14 11 8 3 1 3 8 13 12 13
12 6 9 9 2 7 11 3 2 3 2 4 1 6 3 2 4 9 8 15 15 18 18 20 22 24 23 22 23 21 21 20 18 16 13 9 6 3 3 9 13 14 14 12
10 12 5 4 4 2 7 5 1 4 0 4 2 5 15 11 11 5 10 14 17 19 19 19 22 21 22 24 25 24 21 19 16 12 11 8 9 4 7 9 12 13 14 8
9 9 3 5 6 7 5 12 3 3 3 4 4 6 7 7 5 7 12 14 15 16 16 16 18 22 22 23 23 21 21 22 20 20 18 20 19 17 14 11 15 9 6 6
8 4 4 7 9 13 6 5 2 2 1 3 4 5 3 10 4 11 12 12 16 17 17 15 17 22 22 21 22 22 20 19 20 21 20 18 17 16 15 15 11 6 4 7
8 8 8 8 3 4 5 5 9 7 5 2 2 5 2 7 6 9 10 12 13 15 16 16 20 21 21 20 20 21 19 19 19 18 17 17 15 13 12 9 8 8 8 9
8 8 8 9 6 5 7 7 9 4 2 7 3 3 1 2 4 7 9 12 12 13 14 14 16 20 21 19 19 19 19 18 17 18 16 15 14 12 12 10 9 10 11 11
4 7 16 14 11 6 7 10 15 15 5 6 8 7 4 5 6 8 8 10 14 15 16 16 15 18 21 21 20 19 19 17 17 17 15 14 14 12 11 12 13 12 11 12
1 6 5 12 14 14 18 17 15 17 21 11 9 15 15 7 8 13 13 12 13 15 15 16 16 14 20 19 20 18 18 18 18 18 17 15 14 14 15 15 13 12 13 14
3 2 1 5 10 14 13 19 17 21 15 15 11 14 8 7 5 9 15 15 16 17 18 17 16 17 20 21 21 19 19 19 19 17 18 17 17 18 17 15 14 15 16 16
3 0 1 5 4 7 14 24 17 14 14 16 13 19 6 12 13 15 16 18 19 19 18 18 18 20 22 23 22 22 20 19 18 17 17 18 20 20 17 17 17 17 16 17
1 1 1 2 2 15 7 5 21 22 20 21 16 11 10 10 11 11 15 20 18 18 18 16 17 21 21 21 21 19 20 20 18 18 18 19 20 20 18 17 17 18 16 16
13 2 3 4 6 7 8 5 8 15 21 21 21 17 9 6 3 9 14 17 20 21 19 23 27 25 23 25 24 23 21 20 20 20 21 21 21 20 19 18 18 17 17 15
9 9 4 3 6 11 6 2 6 8 9 8 18 14 9 8 6 10 14 19 18 20 21 24 27 24 25 24 24 24 23 23 23 23 24 22 22 21 20 20 19 18 16 16
6 5 12 11 7 5 6 5 6 8 2 11 3 7 14 7 10 7 7 14 19 21 22 25 27 27 29 27 27 24 24 25 22 22 24 22 22 21 21 22 19 19 18 18
10 12 7 8 10 16 7 3 6 5 6 9 10 11 5 10 12 13 9 12 14 17 22 28 25 25 26 29 29 25 25 23 23 23 23 23 23 21 22 23 21 21 20 18
6 5 4 10 7 5 6 7 9 9 6 9 8 10 11 13 15 16 14 13 17 20 22 30 30 27 26 29 30 27 25 27 27 25 24 24 24 22 24 24 23 21 19 17
5 1 4 3 10 7 4 8 8 9 10 6 11 13 12 12 14 15 13 12 14 19 23 27 26 27 27 29 27 24 28 30 30 28 26 25 25 24 23 21 21 20 19 17
3 3 6 8 13 11 7 3 7 13 12 9 12 14 13 15 18 17 12 13 14 18 24 28 27 27 29 31 28 27 31 32 30 28 26 26 25 27 25 22 22 20 20 20
8 10 6 9 2 4 3 6 15 15 14 12 16 23 19 16 16 16 15 12 15 18 24 24 24 25 26 31 31 31 33 35 33 30 28 29 28 28 26 24 20 22 21 22
Wind_Direction
181 221 208 173 156 180 134 209 221 192 110 224 233 225 220 196 206 218 199 200 201 203 185 182 180 178 172 176 172 180 180 181 179 175 172 177 181 190 201 211 218 224 234 256
162 228 142 137 161 161 134 193 198 81 112 175 317 267 246 207 214 216 191 180 195 188 180 182 185 184 185 184 183 187 187 186 189 189 193 195 191 203 207 214 222 228 239 259
199 61 154 143 165 168 205 224 179 167 175 208 215 271 240 235 233 212 194 192 199 193 184 179 187 192 188 192 187 188 190 194 196 197 198 203 205 221 220 224 227 225 246 264
228 170 162 176 202 202 240 209 175 159 166 214 208 273 233 220 226 214 200 198 199 192 190 181 187 194 193 197 187 194 192 192 195 196 196 196 207 216 224 226 232 237 264 269
186 177 174 202 228 187 110 175 158 167 192 236 195 258 261 184 222 215 209 208 204 193 190 188 189 197 196 193 189 189 194 196 194 196 202 203 214 233 241 257 257 275 277 272
210 97 151 114 50 131 133 118 98 88 191 242 335 251 260 202 213 206 204 211 207 194 190 193 184 190 197 191 186 190 195 203 202 201 205 211 219 235 214 269 296 302 295 289
134 127 77 131 100 127 147 174 244 221 204 276 326 222 258 240 219 208 198 204 206 184 187 191 180 186 190 187 186 194 195 202 202 204 206 207 209 199 264 300 306 308 303 296
206 199 179 177 243 202 183 228 217 295 298 313 180 242 276 272 305 222 214 203 191 190 189 189 189 187 187 186 188 186 195 207 205 211 214 218 211 190 276 295 296 296 306 321
201 224 178 196 134 190 148 206 68 111 83 272 241 267 271 263 236 220 183 174 181 186 188 189 186 186 180 187 191 187 194 207 191 200 196 200 208 249 287 297 299 299 285 249
201 215 178 149 134 70 234 153 163 224 245 262 253 277 264 314 183 171 175 176 172 178 185 183 184 185 187 190 192 188 193 200 191 200 202 203 213 216 224 247 273 270 256 206
175 219 125 163 206 196 154 190 133 160 230 266 305 308 225 285 275 189 186 178 169 174 178 176 179 184 186 183 184 187 189 194 195 202 209 218 223 223 234 249 251 240 162 141
192 226 214 211 128 237 204 170 192 234 189 245 333 287 219 294 235 194 187 178 173 172 167 172 172 178 179 183 178 185 188 194 189 198 205 210 222 221 222 211 182 148 149 143
178 206 214 232 188 137 220 185 189 122 136 206 237 323 101 42 160 195 186 170 169 165 162 167 167 174 177 179 180 182 178 187 179 187 185 188 186 187 187 165 150 157 147 135
210 206 219 228 238 189 204 199 200 207 224 240 234 258 237 107 163 180 180 179 172 170 167 173 174 178 174 175 179 181 171 171 169 173 175 182 186 167 162 159 160 153 141 134
316 230 209 235 241 222 230 234 202 207 228 226 274 232 245 235 201 198 190 172 180 171 175 180 183 178 173 173 176 181 170 168 168 166 168 175 177 167 163 159 149 143 135 133
4 191 180 261 237 223 229 234 220 222 229 245 247 257 261 223 196 196 180 181 186 181 185 188 183 176 174 177 179 176 172 168 172 168 164 165 166 172 165 157 147 141 133 131
357 35 243 235 347 224 236 235 224 219 207 227 224 247 202 211 214 202 192 188 191 188 192 187 188 181 176 180 179 176 172 166 171 167 162 163 166 164 157 152 144 139 135 132
294 248 216 269 193 230 254 240 226 224 219 215 235 242 207 233 208 218 204 190 194 195 196 185 184 183 177 173 175 167 168 167 167 165 164 162 158 160 157 148 145 142 135 130
215 237 244 244 231 295 275 209 189 201 238 228 230 235 212 214 142 244 216 203 199 189 199 187 184 181 167 168 168 164 166 168 170 170 169 166 164 158 155 151 148 142 138 137
191 229 249 180 234 242 230 337 310 221 249 298 225 227 180 162 231 246 201 202 210 211 195 177 178 177 167 170 167 165 169 172 178 174 172 168 167 161 156 153 148 146 144 142
164 185 214 218 246 254 267 296 175 179 54 355 338 192 179 202 220 260 182 218 205 193 176 172 169 175 171 169 169 171 173 181 176 169 166 165 166 161 159 153 153 151 148 152
180 178 190 204 222 235 8 172 222 10 24 42 2 7 296 260 260 248 234 206 198 184 164 167 169 175 169 169 171 172 180 171 166 165 162 162 163 159 158 159 157 160 161 161
224 247 208 210 209 104 44 79 81 37 23 15 356 345 325 313 280 265 234 196 190 187 184 174 168 168 173 173 176 174 172 165 164 161 163 163 160 160 165 163 162 164 170 171
203 345 241 257 211 219 39 126 61 32 16 355 356 337 339 323 320 281 250 220 191 185 179 177 169 168 174 175 178 176 165 166 163 162 164 165 161 163 167 168 171 171 175 178
274 311 226 245 273 270 172 118 360 347 349 341 341 339 336 329 320 326 273 214 200 182 182 178 175 174 177 169 172 171 171 168 165 163 166 168 169 169 170 175 179 183 187 185
212 225 219 245 214 270 279 332 327 327 331 339 340 334 329 331 318 305 286 231 196 189 182 180 179 171 177 170 170 171 174 172 168 167 172 176 174 175 175 177 181 189 193 194
Height
772 781 785 783 786 789 795 797 799 794 798 803 799 798 791 790 790 789 794 798 802 806 813 815 818 821 824 827 829 832 835 839 841 845 847 849 850 853 856 856 858 860 862 864
781 783 776 775 778 782 793 797 806 809 803 806 805 801 788 786 784 782 791 800 801 802 807 812 815 819 822 825 828 831 834 838 841 843 845 848 850 852 853 855 856 859 861 863
776 774 769 776 783 787 790 795 802 807 803 801 811 804 793 783 781 783 785 787 791 795 800 806 812 816 821 824 826 829 833 836 839 842 845 847 849 851 851 853 854 858 860 862
773 765 774 779 783 781 799 786 792 803 807 822 801 812 788 778 779 780 781 781 785 794 796 801 807 813 818 822 825 828 830 834 836 838 841 844 846 847 848 851 854 856 859 860
773 772 776 780 778 775 793 787 791 798 805 809 806 812 777 779 782 774 773 773 776 783 790 794 801 809 815 819 823 826 827 830 833 836 838 841 843 844 847 850 852 855 856 857
764 758 764 771 776 776 786 796 801 805 810 822 810 806 777 773 763 764 764 766 769 778 784 791 798 807 812 817 822 824 825 828 830 834 837 839 841 844 846 850 851 853 854 854
772 773 771 769 787 787 790 796 814 819 821 818 810 812 774 756 757 751 755 760 764 774 780 787 794 802 809 813 817 819 822 824 828 831 835 838 841 843 845 848 850 850 852 852
784 798 776 766 770 779 790 792 804 826 823 809 808 800 766 751 748 746 748 751 761 769 774 781 788 796 803 809 812 817 820 822 827 830 836 839 840 842 844 847 849 850 851 850
785 783 768 768 770 773 796 799 793 811 816 813 794 777 754 742 747 748 748 753 758 763 768 775 784 791 799 804 807 812 816 820 829 831 834 836 838 841 845 846 846 847 848 848
761 783 770 774 767 776 778 781 801 798 819 820 793 790 773 751 750 750 751 752 756 760 767 772 780 787 794 800 804 810 814 817 825 827 829 832 839 843 843 845 845 845 846 846
755 760 782 773 773 773 790 787 791 788 794 802 805 775 752 750 747 748 745 747 750 756 763 769 777 783 790 796 800 806 811 816 823 824 827 831 835 840 842 842 843 843 844 845
746 751 774 770 759 757 765 769 773 783 803 803 803 778 741 743 739 739 741 745 748 754 759 767 774 780 786 792 797 801 807 813 819 821 824 828 832 834 836 838 841 843 844 845
748 758 776 771 768 767 768 766 762 780 783 796 792 770 738 737 741 740 742 745 750 754 759 764 771 777 782 788 793 797 803 808 814 817 822 826 831 833 836 838 839 842 843 845
751 748 754 769 759 749 766 764 761 763 784 774 774 757 744 738 739 740 744 745 747 751 756 761 767 772 777 784 790 794 799 804 810 814 818 821 826 830 833 837 840 842 844 845
751 755 761 748 743 744 742 746 759 764 752 772 751 759 737 734 731 731 736 743 750 751 754 758 763 768 774 781 788 792 795 800 806 811 816 820 824 828 833 836 839 842 843 845
757 760 762 756 744 747 749 739 742 748 743 755 752 751 728 725 728 733 733 740 746 747 748 753 760 766 770 777 783 789 793 798 803 808 814 819 823 826 831 835 838 841 843 846
764 761 764 759 758 753 760 735 736 739 735 739 756 726 725 729 728 725 727 731 736 738 742 748 753 760 766 772 779 784 790 796 801 805 810 815 821 826 832 835 839 842 844 847
769 768 769 760 759 770 722 711 713 724 719 723 718 719 720 716 715 717 717 721 726 730 734 742 749 756 763 771 778 783 788 793 799 804 809 814 820 826 831 834 837 841 845 849
767 766 764 764 757 738 721 718 721 725 722 707 714 712 715 716 717 718 715 714 715 720 724 732 741 750 758 766 774 779 785 791 796 802 807 812 818 823 828 833 838 842 845 850
769 769 767 774 764 757 718 710 704 704 732 695 700 706 715 717 729 712 705 708 712 715 720 730 738 749 754 763 770 776 782 787 793 798 804 809 815 820 826 831 837 842 847 851
772 774 770 764 757 735 711 709 701 738 737 712 702 702 709 719 703 693 697 704 706 713 717 728 735 742 747 757 765 772 778 783 791 797 801 808 814 819 825 830 836 840 845 849
751 758 761 760 762 755 714 709 720 732 722 722 721 714 707 702 695 695 696 699 706 711 717 724 732 739 745 752 760 767 773 780 788 794 801 806 812 819 823 829 833 838 843 847
748 732 732 731 727 717 717 721 725 727 728 729 727 722 720 712 701 696 696 696 700 706 713 716 722 735 743 747 754 761 769 776 784 792 800 805 810 816 820 825 830 836 841 846
744 749 739 734 711 717 719 722 727 728 727 726 724 721 719 715 709 697 693 694 696 701 708 714 721 729 738 743 751 759 765 772 781 788 797 803 807 813 819 824 829 833 838 843
743 751 735 727 719 716 717 722 726 724 723 722 723 720 716 713 703 695 688 689 692 695 703 709 714 722 730 736 746 754 762 769 777 785 792 799 804 809 816 821 825 829 833 837
739 732 730 715 714 720 718 721 722 722 720 721 718 709 708 710 707 699 690 687 688 693 698 706 712 719 730 731 739 748 756 763 770 779 787 793 799 805 811 817 822 826 831 835